Burns, OR

2:50 AM PDT on April 21, 2018 (GMT -0700)
Burns Municipal

Weather History for KBNO - March, 2014

Change the Weather History Date:

Tuesday, March 18, 2014

  Actual Average Record
Temperature  
Mean Temperature 34 °F 38 °F  
Max Temperature 47 °F 50 °F 70 °F (1947)
Min Temperature 21 °F 26 °F 8 °F (2002)
Degree Days  
Heating Degree Days 31 27  
Month to date heating degree days 428 527  
Since 1 July heating degree days 5711 6055  
Cooling Degree Days 0 0  
Month to date cooling degree days 0 0  
Year to date cooling degree days 0 0  
Moisture  
Dew Point 18 °F    
Average Humidity 56    
Maximum Humidity 84    
Minimum Humidity 28    
Precipitation  
Precipitation 0.00 in 0.03 in 0.34 in (1995)
Month to date precipitation 0.76 0.66  
Year to date precipitation 2.88 2.87  
Sea Level Pressure  
Sea Level Pressure 30.22 in    
Wind  
Wind Speed 6 mph (West)    
Max Wind Speed 14 mph    
Max Gust Speed 18 mph    
Visibility 10 miles    
Events      
T = Trace of Precipitation, MM = Missing Value Source: NWS Daily Summary

Daily Weather History Graph

Daily Weather History Graph

Search for Another Location

Airport or City:

Astronomy

Mar. 18, 2014 Rise Set
Actual Time 7:02 AM PDT 7:05 PM PDT
Civil Twilight 6:33 AM PDT 7:34 PM PDT
Nautical Twilight 6:00 AM PDT 8:07 PM PDT
Astronomical Twilight 5:26 AM PDT 8:42 PM PDT
Moon 9:33 PM PDT (3/18) 7:50 AM PDT (3/18)
Length of Visible Light 13h 00m
Length of Day
12h 03m
Waning Gibbous, 96% of the Moon is Illuminated
Mar 18
Waning Gibbous
Mar 23
Last Quarter
Mar 30
New
Apr 7
First Quarter
Apr 15
Full

Hourly Weather History & Observations

Time (PDT) Temp. Windchill Dew Point Humidity Pressure Visibility Wind Dir Wind Speed Gust Speed Precip Events Conditions
12:53 AM 32.0 °F 23.0 °F 19.0 °F 59% 30.21 in 10.0 mi West 11.5 mph - N/A   Overcast
1:53 AM 32.0 °F 24.8 °F 19.9 °F 61% 30.21 in 10.0 mi WNW 8.1 mph - N/A   Overcast
2:53 AM 30.9 °F 25.2 °F 21.0 °F 67% 30.21 in 10.0 mi WNW 5.8 mph - N/A   Overcast
3:53 AM 30.9 °F 24.3 °F 21.0 °F 67% 30.20 in 10.0 mi West 6.9 mph - N/A   Overcast
4:53 AM 28.9 °F 21.1 °F 21.0 °F 72% 30.22 in 10.0 mi West 8.1 mph - N/A   Overcast
5:53 AM 27.0 °F 18.7 °F 19.0 °F 72% 30.23 in 10.0 mi WNW 8.1 mph - N/A   Mostly Cloudy
6:53 AM 21.9 °F 12.5 °F 17.1 °F 82% 30.26 in 10.0 mi West 8.1 mph - N/A   Clear
7:53 AM 26.1 °F - 19.0 °F 75% 30.28 in 10.0 mi Calm Calm - N/A   Clear
8:53 AM 32.0 °F 23.6 °F 18.0 °F 56% 30.28 in 10.0 mi NW 10.4 mph - N/A   Partly Cloudy
9:53 AM 34.0 °F - 18.0 °F 52% 30.28 in 10.0 mi Calm Calm - N/A   Clear
10:53 AM 35.1 °F 31.0 °F 16.0 °F 46% 30.26 in 10.0 mi Variable 4.6 mph - N/A   Clear
11:53 AM 39.0 °F 35.7 °F 17.1 °F 41% 30.25 in 10.0 mi NW 4.6 mph - N/A   Clear
12:53 PM 39.9 °F 35.1 °F 17.1 °F 40% 30.23 in 10.0 mi SSW 6.9 mph - N/A   Clear
1:53 PM 42.1 °F - 18.0 °F 38% 30.21 in 10.0 mi North - - N/A   Clear
2:53 PM 44.1 °F 41.5 °F 17.1 °F 34% 30.18 in 10.0 mi Variable 4.6 mph - N/A   Clear
3:53 PM 45.0 °F 42.6 °F 15.1 °F 30% 30.18 in 10.0 mi ESE 4.6 mph - N/A   Clear
4:53 PM 46.0 °F 43.9 °F 15.1 °F 29% 30.17 in 10.0 mi ESE 4.6 mph - N/A   Clear
5:53 PM 45.0 °F 42.6 °F 16.0 °F 31% 30.17 in 10.0 mi South 4.6 mph - N/A   Clear
6:53 PM 42.1 °F 36.1 °F 18.0 °F 38% 30.19 in 10.0 mi SE 10.4 mph - N/A   Clear
7:53 PM 34.0 °F 28.0 °F 19.0 °F 54% 30.21 in 10.0 mi ESE 6.9 mph - N/A   Clear
8:53 PM 30.9 °F 25.2 °F 19.9 °F 64% 30.21 in 10.0 mi SE 5.8 mph - N/A   Clear
9:53 PM 26.1 °F 17.6 °F 18.0 °F 71% 30.22 in 10.0 mi North 8.1 mph - N/A   Clear
10:53 PM 23.0 °F - 18.0 °F 81% 30.23 in 10.0 mi Calm Calm - N/A   Clear
11:53 PM 23.0 °F 18.4 °F 17.1 °F 78% 30.21 in 10.0 mi West 3.5 mph - N/A   Clear